KB2AHZ Weather Reports


time (UTC)temp
C
wind
direction
speed
KPH
gust
KPH
rain 1hr
cm
rain 24hr
cm
rain mn
cm
humidity
%
barometer
mb
20260506222332 22 243 4.8 9.7 0.00 0.15 0.15 83 1011.2
20260506221830 22 294 4.8 8.0 0.00 0.15 0.15 83 1011.3
20260506221327 22 205 0.0 12.9 0.00 0.15 0.15 83 1011.6
20260506220825 22 290 3.2 20.9 0.00 0.15 0.15 82 1011.4
20260506220320 22 273 4.8 9.7 0.00 0.15 0.15 81 1011.4
20260506215817 22 228 12.9 14.5 0.00 0.15 0.15 82 1011.3
20260506215313 22 265 6.4 12.9 0.00 0.15 0.15 81 1011.2
20260506214809 22 248 6.4 6.4 0.00 0.15 0.15 82 1011.4
20260506214306 22 253 3.2 12.9 0.00 0.15 0.15 82 1011.4
20260506213804 22 243 3.2 8.0 0.00 0.15 0.15 81 1011.1
20260506213301 22 243 4.8 11.3 0.00 0.15 0.15 81 1011.2
20260506212758 22 218 4.8 9.7 0.00 0.15 0.15 81 1011.3
20260506212254 22 234 4.8 6.4 0.00 0.15 0.15 82 1011.2
20260506211749 22 203 6.4 14.5 0.00 0.15 0.15 79 1011.5
20260506211246 22 227 3.2 17.7 0.00 0.15 0.15 79 1011.4
20260506210743 22 263 4.8 8.0 0.00 0.15 0.15 80 1011.5
20260506210240 22 237 9.7 16.1 0.00 0.15 0.15 80 1011.4
20260506205737 22 259 1.6 6.4 0.00 0.15 0.15 81 1011.4
20260506205232 21 167 8.0 9.7 0.00 0.15 0.15 83 1011.3
20260506204729 21 216 8.0 16.1 0.00 0.15 0.15 82 1011.3
20260506204227 21 270 4.8 11.3 0.00 0.15 0.15 83 1011.2
20260506203725 21 243 11.3 14.5 0.00 0.15 0.15 83 1011.0
20260506203221 21 226 3.2 8.0 0.00 0.15 0.15 85 1011.1
20260506202719 21 45 4.8 9.7 0.00 0.15 0.15 85 1011.2
20260506202215 21 283 4.8 12.9 0.00 0.15 0.15 84 1011.1
20260506201712 21 275 4.8 12.9 0.00 0.15 0.15 83 1010.9
20260506201208 21 242 4.8 22.5 0.00 0.15 0.15 84 1011.1
20260506200700 21 229 4.8 12.9 0.00 0.15 0.15 86 1010.8
20260506200157 20 60 4.8 4.8 0.00 0.15 0.15 87 1011.1
20260506195653 20 306 3.2 12.9 0.00 0.15 0.15 85 1010.8
20260506195150 20 166 4.8 9.7 0.00 0.15 0.15 86 1011.0
20260506194647 20 236 3.2 11.3 0.00 0.15 0.15 86 1010.5
20260506194143 20 265 4.8 11.3 0.00 0.15 0.15 87 1010.5
20260506193641 20 210 4.8 14.5 0.00 0.15 0.15 86 1010.9
20260506193138 20 231 8.0 19.3 0.00 0.15 0.15 85 1011.2
20260506192635 20 233 4.8 17.7 0.00 0.15 0.15 85 1011.5
20260506192131 20 285 20.9 20.9 0.00 0.15 0.15 85 1011.6
20260506191628 20 297 0.0 6.4 0.00 0.15 0.15 87 1011.8
20260506191124 20 235 11.3 17.7 0.00 0.15 0.15 84 1012.2
20260506190621 20 261 3.2 17.7 0.00 0.15 0.15 84 1012.3
20260506190118 20 261 6.4 9.7 0.00 0.15 0.15 84 1012.5
20260506185615 20 218 6.4 20.9 0.00 0.15 0.15 85 1012.6
20260506185111 20 230 4.8 9.7 0.00 0.15 0.15 85 1013.1
20260506184609 20 250 6.4 11.3 0.00 0.15 0.15 85 1012.9
20260506184106 20 286 8.0 16.1 0.00 0.15 0.15 86 1013.0
20260506183603 20 279 1.6 9.7 0.00 0.15 0.15 87 1013.2
20260506183058 20 253 3.2 16.1 0.00 0.15 0.15 87 1013.1
20260506182556 20 278 4.8 11.3 0.00 0.15 0.15 87 1013.2
20260506182053 20 214 4.8 6.4 0.00 0.15 0.15 86 1013.7
20260506181551 20 278 6.4 8.0 0.00 0.15 0.15 88 1013.5
20260506181047 20 262 6.4 16.1 0.00 0.15 0.15 87 1013.7
20260506180544 20 257 3.2 9.7 0.00 0.15 0.15 89 1013.7
20260506180041 20 220 0.0 8.0 0.00 0.15 0.15 89 1013.8
20260506175537 20 280 11.3 14.5 0.00 0.15 0.15 87 1014.0
20260506175033 20 260 4.8 19.3 0.00 0.15 0.15 87 1014.0
20260506174533 20 282 4.8 17.7 0.00 0.15 0.15 87 1013.8
20260506174028 20 296 6.4 8.0 0.00 0.15 0.15 88 1014.1
20260506173526 20 306 3.2 16.1 0.00 0.15 0.15 87 1013.7
20260506173023 20 2 3.2 11.3 0.00 0.15 0.15 88 1013.6
20260506172520 19 271 6.4 11.3 0.00 0.15 0.15 89 1013.6
20260506172016 19 277 4.8 20.9 0.00 0.15 0.15 88 1013.8
20260506171514 19 267 6.4 16.1 0.00 0.15 0.15 87 1013.7
20260506171010 18 309 4.8 12.9 0.00 0.15 0.15 88 1013.5
20260506170508 19 246 4.8 12.9 0.00 0.15 0.15 89 1013.6
20260506170000 19 296 3.2 8.0 0.00 0.15 0.15 92 1013.7
20260506165459 19 235 0.0 6.4 0.00 0.15 0.15 93 1013.6
20260506164954 18 281 0.0 8.0 0.00 0.15 0.15 95 1013.7
20260506164451 18 179 3.2 11.3 0.00 0.15 0.15 94 1013.8
20260506163949 18 216 4.8 12.9 0.00 0.15 0.15 95 1013.9
20260506163444 17 210 6.4 12.9 0.00 0.15 0.15 95 1013.8
20260506162938 17 184 0.0 12.9 0.00 0.15 0.15 97 1013.8
20260506162436 17 246 3.2 11.3 0.00 0.15 0.15 97 1013.8
20260506161934 17 228 4.8 4.8 0.18 0.15 0.15 97 1013.9
20260506161431 17 274 1.6 6.4 0.23 0.15 0.15 96 1014.0
20260506160923 17 176 3.2 4.8 0.18 0.13 0.13 96 1014.3
20260506160420 17 212 1.6 8.0 0.30 0.13 0.13 96 1014.5
20260506155918 17 293 3.2 4.8 0.23 0.10 0.10 94 1014.3
20260506155415 17 256 0.0 4.8 0.13 0.08 0.08 93 1014.1
20260506153537 18 263 3.2 8.0 0.13 0.03 0.03 89 1014.7
20260506153034 18 235 0.0 8.0 0.05 0.00 0.00 87 1014.9
20260506152531 18 267 4.8 6.4 0.00 0.00 0.00 84 1014.7
20260506152029 18 235 4.8 9.7 0.00 0.00 0.00 82 1014.5
20260506151527 18 221 6.4 6.4 0.00 0.00 0.00 81 1014.3
20260506151024 18 218 3.2 8.0 0.00 0.00 0.00 80 1014.6
20260506150520 18 234 0.0 6.4 0.00 0.00 0.00 80 1014.6
20260506150017 18 207 3.2 6.4 0.00 0.00 0.00 79 1014.6
20260506145514 18 307 6.4 17.7 0.00 0.00 0.00 79 1014.5
20260506145011 18 248 8.0 16.1 0.00 0.00 0.00 78 1014.2
20260506144508 18 237 3.2 11.3 0.00 0.00 0.00 77 1014.1
20260506144005 19 249 0.0 14.5 0.00 0.00 0.00 77 1014.1
20260506143503 19 241 6.4 20.9 0.00 0.00 0.00 75 1014.2
20260506143001 20 266 4.8 19.3 0.00 0.00 0.00 73 1013.9
20260506142458 20 281 4.8 14.5 0.00 0.00 0.00 72 1014.0
20260506141956 20 233 4.8 17.7 0.00 0.00 0.00 73 1014.1
20260506141454 20 294 6.4 12.9 0.00 0.00 0.00 73 1014.0
20260506140952 20 256 6.4 19.3 0.00 0.00 0.00 73 1014.0
20260506140449 20 241 4.8 17.7 0.00 0.00 0.00 72 1014.0
20260506135946 19 273 9.7 16.1 0.00 0.00 0.00 73 1013.8
20260506135443 19 296 6.4 17.7 0.00 0.00 0.00 75 1013.9
20260506134939 19 259 6.4 30.6 0.00 0.00 0.00 74 1013.9
20260506134435 18 316 1.6 25.7 0.00 0.00 0.00 76 1013.9
20260506133932 18 219 4.8 17.7 0.00 0.00 0.00 76 1014.0
20260506133429 18 303 6.4 20.9 0.00 0.00 0.00 75 1014.0
20260506132926 18 265 8.0 25.7 0.00 0.00 0.00 76 1014.3
20260506132423 18 237 9.7 25.7 0.00 0.00 0.00 77 1014.0
20260506131921 18 235 4.8 9.7 0.00 0.00 0.00 78 1014.0
20260506131417 18 282 4.8 12.9 0.00 0.00 0.00 79 1014.3
20260506130914 18 232 4.8 12.9 0.00 0.00 0.00 79 1014.1
20260506130410 18 277 6.4 17.7 0.00 0.00 0.00 79 1014.0
20260506125909 18 255 6.4 30.6 0.00 0.00 0.00 76 1014.0
20260506125407 18 251 6.4 20.9 0.00 0.00 0.00 76 1013.9
20260506124904 18 282 4.8 16.1 0.00 0.00 0.00 76 1013.5
20260506124401 18 233 4.8 11.3 0.00 0.00 0.00 77 1013.9
20260506123859 18 221 4.8 11.3 0.00 0.00 0.00 77 1013.9
20260506123357 18 248 4.8 8.0 0.00 0.00 0.00 77 1013.9
20260506122854 18 261 0.0 14.5 0.00 0.00 0.00 78 1013.7
20260506122351 18 290 4.8 20.9 0.00 0.00 0.00 78 1013.6
20260506121849 18 222 4.8 20.9 0.00 0.00 0.00 78 1013.3
20260506121346 18 231 9.7 16.1 0.00 0.00 0.00 78 1013.5
20260506120843 18 221 3.2 6.4 0.00 0.00 0.00 78 1013.4
20260506120340 18 250 4.8 11.3 0.00 0.00 0.00 77 1013.2
20260506115838 18 262 4.8 9.7 0.00 0.00 0.00 78 1013.2
20260506115336 18 199 11.3 14.5 0.00 0.00 0.00 78 1013.4
20260506114834 17 227 3.2 8.0 0.00 0.00 0.00 78 1013.5
20260506114331 17 240 8.0 19.3 0.00 0.00 0.00 78 1013.5
20260506113830 17 208 4.8 19.3 0.00 0.00 0.00 78 1013.4
20260506113327 17 227 9.7 16.1 0.00 0.00 0.00 78 1013.6
20260506112823 17 269 4.8 9.7 0.00 0.00 0.00 78 1013.4
20260506112320 17 228 4.8 20.9 0.00 0.00 0.00 78 1013.3
20260506111818 17 241 3.2 11.3 0.00 0.00 0.00 78 1013.3
20260506111316 17 261 3.2 11.3 0.00 0.00 0.00 78 1013.5
20260506110813 17 283 3.2 16.1 0.00 0.00 0.00 78 1013.3
20260506110310 17 215 4.8 8.0 0.00 0.00 0.00 78 1013.3
20260506105806 17 271 8.0 9.7 0.00 0.00 0.00 78 1013.2
20260506105305 17 274 4.8 8.0 0.00 0.00 0.00 79 1013.3
20260506104801 17 217 4.8 11.3 0.00 0.00 0.00 79 1013.2
20260506104259 17 247 4.8 12.9 0.00 0.00 0.00 79 1013.3
20260506103756 17 242 4.8 19.3 0.00 0.00 0.00 79 1013.4
20260506103253 17 227 3.2 9.7 0.00 0.00 0.00 79 1013.3
20260506102751 17 235 3.2 19.3 0.00 0.00 0.00 79 1013.3
20260506102248 17 162 6.4 20.9 0.00 0.00 0.00 79 1013.4
20260506101745 17 257 9.7 9.7 0.00 0.00 0.00 79 1013.3
20260506101242 17 231 6.4 16.1 0.00 0.00 0.00 79 1013.2
20260506100740 17 240 6.4 11.3 0.00 0.00 0.00 79 1013.4
20260506100237 17 243 4.8 12.9 0.00 0.00 0.00 79 1013.2
20260506095736 17 201 11.3 20.9 0.00 0.00 0.00 79 1013.1
20260506095232 17 245 3.2 8.0 0.00 0.00 0.00 79 1013.5
20260506094729 17 274 4.8 12.9 0.00 0.00 0.00 79 1013.5
20260506094227 17 287 1.6 8.0 0.00 0.00 0.00 79 1013.2
20260506093726 17 277 6.4 19.3 0.00 0.00 0.00 79 1013.1
20260506093222 17 268 6.4 14.5 0.00 0.00 0.00 79 1013.3
20260506092720 17 212 6.4 20.9 0.00 0.00 0.00 79 1013.2
20260506092218 17 227 9.7 17.7 0.00 0.00 0.00 79 1013.2
20260506091715 17 227 4.8 9.7 0.00 0.00 0.00 79 1013.3
20260506091212 17 245 8.0 14.5 0.00 0.00 0.00 79 1013.3
20260506090710 17 253 8.0 16.1 0.00 0.00 0.00 79 1013.5
20260506090207 17 309 12.9 16.1 0.00 0.00 0.00 79 1013.8
20260506085704 17 217 4.8 19.3 0.00 0.00 0.00 79 1013.5
20260506085200 17 212 6.4 9.7 0.00 0.00 0.00 79 1013.7
20260506084656 17 236 3.2 11.3 0.00 0.00 0.00 79 1013.7
20260506084153 17 244 4.8 12.9 0.00 0.00 0.00 79 1013.5
20260506083650 17 203 3.2 9.7 0.00 0.00 0.00 79 1013.8
20260506083148 17 264 4.8 14.5 0.00 0.00 0.00 79 1013.6
20260506082644 17 250 6.4 27.4 0.00 0.00 0.00 79 1013.5
20260506082139 17 273 4.8 20.9 0.00 0.00 0.00 79 1013.5
20260506081638 17 248 9.7 19.3 0.00 0.00 0.00 79 1013.8
20260506081135 17 214 8.0 9.7 0.00 0.00 0.00 79 1013.5
20260506080633 17 257 4.8 12.9 0.00 0.00 0.00 80 1013.6
20260506080129 17 283 4.8 11.3 0.00 0.00 0.00 80 1013.7
20260506073113 17 236 4.8 19.3 0.00 0.00 0.00 79 1013.7
20260506072610 18 238 4.8 11.3 0.00 0.00 0.00 79 1013.8
20260506072108 17 241 9.7 22.5 0.00 0.00 0.00 79 1013.8
20260506071605 18 200 4.8 11.3 0.00 0.00 0.00 79 1014.0
20260506071102 18 300 4.8 16.1 0.00 0.00 0.00 79 1013.8
20260506070559 18 227 11.3 11.3 0.00 0.00 0.00 79 1014.0
20260506062034 18 232 9.7 30.6 0.00 0.00 0.00 78 1014.3
20260506061529 18 264 6.4 22.5 0.00 0.00 0.00 78 1014.5
20260506061027 18 258 8.0 22.5 0.00 0.00 0.00 78 1014.3
20260506060526 18 228 3.2 17.7 0.00 0.00 0.00 78 1014.6
20260506050954 19 247 4.8 20.9 0.00 0.00 0.00 74 1014.9
20260506050452 19 214 6.4 16.1 0.00 0.00 0.00 73 1014.7
20260506044942 19 295 4.8 11.3 0.00 0.00 0.00 72 1014.8
20260506044441 20 289 6.4 17.7 0.00 0.00 0.00 71 1014.9
20260506043937 20 188 4.8 9.7 0.00 0.00 0.00 71 1014.8
20260506043434 20 235 8.0 20.9 0.00 0.00 0.00 70 1014.5
20260506042932 20 241 9.7 19.3 0.00 0.00 0.00 70 1014.3
20260506042432 20 239 8.0 30.6 0.00 0.00 0.00 69 1014.5
20260506041929 20 228 14.5 24.1 0.00 0.00 0.00 69 1014.5
20260506041427 20 217 4.8 9.7 0.00 0.00 0.00 69 1014.8
20260506040924 20 297 4.8 24.1 0.00 0.00 0.00 68 1014.7
20260506040421 20 238 14.5 19.3 0.00 0.00 0.00 68 1014.9
20260506035917 20 302 3.2 9.7 0.00 0.00 0.00 68 1014.7
20260506035415 20 234 9.7 17.7 0.00 0.00 0.00 67 1014.6
20260506034911 20 278 9.7 19.3 0.00 0.00 0.00 67 1014.8
20260506034409 20 228 6.4 12.9 0.00 0.00 0.00 66 1014.8
20260506033905 21 328 4.8 12.9 0.00 0.00 0.00 66 1014.7
20260506033403 21 240 6.4 16.1 0.00 0.00 0.00 65 1014.8
20260506032859 21 238 8.0 16.1 0.00 0.00 0.00 65 1014.7
20260506032356 21 279 3.2 16.1 0.00 0.00 0.00 64 1014.9
20260506031853 21 235 4.8 11.3 0.00 0.00 0.00 64 1014.7
20260506031350 21 125 3.2 16.1 0.00 0.00 0.00 64 1014.7
20260506030848 21 242 6.4 33.8 0.00 0.00 0.00 63 1014.8
20260506030346 21 220 11.3 24.1 0.00 0.00 0.00 63 1014.6
20260506025843 21 68 6.4 19.3 0.00 0.00 0.00 63 1014.6
20260506025339 21 292 4.8 19.3 0.00 0.00 0.00 62 1014.6
20260506024836 21 306 4.8 9.7 0.00 0.00 0.00 62 1014.8
20260506024333 21 231 3.2 8.0 0.00 0.00 0.00 62 1014.6
20260506023829 21 216 3.2 12.9 0.00 0.00 0.00 61 1014.6
20260506023326 21 223 6.4 19.3 0.00 0.00 0.00 61 1014.7
20260506022823 21 296 3.2 11.3 0.00 0.00 0.00 61 1014.5
20260506022320 21 258 8.0 16.1 0.00 0.00 0.00 61 1014.6
20260506021819 21 264 8.0 19.3 0.00 0.00 0.00 60 1014.6
20260506021315 21 288 6.4 9.7 0.00 0.00 0.00 60 1014.5
20260506020812 22 244 3.2 6.4 0.00 0.00 0.00 60 1014.5
20260506020310 22 235 6.4 8.0 0.00 0.00 0.00 59 1014.5
20260506015807 22 290 3.2 8.0 0.00 0.00 0.00 59 1014.1
20260506015306 22 242 4.8 11.3 0.00 0.00 0.00 59 1014.2
20260506014801 22 240 1.6 14.5 0.00 0.00 0.00 58 1014.0
20260506014258 22 253 6.4 12.9 0.00 0.00 0.00 58 1014.2
20260506013755 22 231 4.8 14.5 0.00 0.00 0.00 57 1013.9
20260506013252 22 299 3.2 14.5 0.00 0.00 0.00 57 1013.9
20260506012748 22 304 3.2 8.0 0.00 0.00 0.00 57 1014.1
20260506012245 22 227 4.8 6.4 0.00 0.00 0.00 57 1014.0
20260506011743 22 240 4.8 8.0 0.00 0.00 0.00 56 1014.0
20260506011239 22 237 4.8 6.4 0.00 0.00 0.00 56 1013.9
20260506010737 22 206 6.4 14.5 0.00 0.00 0.00 56 1013.6
20260506010234 22 226 3.2 6.4 0.00 0.00 0.00 55 1013.8
20260506005731 22 255 3.2 8.0 0.00 0.00 0.00 55 1013.7
20260506005228 22 253 0.0 9.7 0.00 0.00 0.00 54 1013.4
20260506004724 22 277 6.4 8.0 0.00 0.00 0.00 54 1013.4
20260506004222 22 218 0.0 8.0 0.00 0.00 0.00 53 1013.7
20260506003717 23 212 6.4 9.7 0.00 0.00 0.00 53 1013.6
20260506003214 23 248 4.8 12.9 0.00 0.00 0.00 52 1013.5
20260506002710 23 280 3.2 8.0 0.00 0.00 0.00 52 1013.7
20260506002206 23 258 0.0 4.8 0.00 0.00 0.00 52 1013.3
20260506001702 23 237 3.2 4.8 0.00 0.00 0.00 52 1013.3
20260506001200 23 239 4.8 8.0 0.00 0.00 0.00 52 1013.3
20260506000657 23 211 3.2 6.4 0.00 0.00 0.00 51 1013.3
20260506000154 23 216 0.0 12.9 0.00 0.00 0.00 51 1013.2
20260505235652 23 241 1.6 8.0 0.00 0.00 0.00 50 1013.2
20260505235149 23 265 3.2 9.7 0.00 0.00 0.00 50 1013.2
20260505234646 24 180 0.0 4.8 0.00 0.00 0.00 49 1013.3
20260505234143 24 175 3.2 12.9 0.00 0.00 0.00 49 1013.1
20260505233640 24 264 3.2 9.7 0.00 0.00 0.00 48 1013.1
20260505233137 25 220 4.8 16.1 0.00 0.00 0.00 48 1013.3
20260505232635 25 268 4.8 9.7 0.00 0.00 0.00 47 1013.4
20260505232132 25 224 11.3 19.3 0.00 0.00 0.00 47 1013.2
20260505231629 25 244 6.4 14.5 0.00 0.00 0.00 47 1013.1
20260505231128 25 265 6.4 6.4 0.00 0.00 0.00 47 1013.2
20260505230626 25 267 3.2 9.7 0.00 0.00 0.00 46 1013.1
20260505230121 25 194 1.6 19.3 0.00 0.00 0.00 45 1013.0
20260505225618 25 199 9.7 16.1 0.00 0.00 0.00 45 1013.1
20260505225114 25 264 8.0 11.3 0.00 0.00 0.00 44 1013.2
20260505224611 25 273 4.8 11.3 0.00 0.00 0.00 44 1013.4
20260505224108 25 292 4.8 27.4 0.00 0.00 0.00 43 1013.3
20260505223605 26 270 8.0 17.7 0.00 0.00 0.00 44 1013.2
20260505223101 26 229 3.2 14.5 0.00 0.00 0.00 44 1013.4
20260505222558 26 15 3.2 25.7 0.00 0.00 0.00 44 1013.2